Location: Augirein
(42.9320°N, 0.9181°E)
Time: 00:44:20
(UTC+00:00)

ADEOS II - Pass Details

Date: 20 June 2021
Orbit: 800 x 800 km, 98.6° (Epoch: 25 July)

Event Time Altitude Azimuth Distance (km) Brightness Sun altitude
Rises 03:06:21 0° 4° (N) 3,319 6.2 -10.7°
Reaches altitude 10° 03:08:54 10° 354° (N) 2,384 5.2 -10.4°
Maximum altitude 03:13:28 31° 294° (WNW) 1,377 3.2 -9.8°
Enters shadow 03:17:45 11° 235° (SW) 2,281 3.8 -9.3°
